Location: Kawakawa
(35.3830°S, 174.0670°E)
Time: 02:36:10
(UTC+12:00)

Helios 1A Rocket - Pass Details

Date: 15 August 2020
Orbit: 564 x 585 km, 98.3° (Epoch: 19 September)

Event Time Altitude Azimuth Distance (km) Brightness Sun altitude
Rises 19:46:40 0° 177° (S) 2,831 6.4 -23.9°
Reaches altitude 10° 19:48:56 10° 184° (S) 1,919 5.6 -24.3°
Maximum altitude 19:52:48 39° 252° (WSW) 880 4.3 -25.1°
Drops below altitude 10° 19:56:37 10° 321° (NW) 1,882 6.0 -25.9°
Sets 19:58:50 0° 329° (NNW) 2,767 6.8 -26.3°
